Fulton, NY

3:36 AM EDT on October 23, 2019 (GMT -0400)
Oswego County

Weather History for KFZY - May, 2019

Change the Weather History Date:

Friday, May 10, 2019

  Actual Average (KSYR) Record (KSYR)
Temperature  
Mean Temperature 58 °F -  
Max Temperature 71 °F 67 °F 89 °F (1936)
Min Temperature 46 °F 45 °F 27 °F (1966)
Degree Days  
Heating Degree Days 6    
Growing Degree Days 8 (Base 50)    
Moisture  
Dew Point 52 °F    
Average Humidity 77    
Maximum Humidity 90    
Minimum Humidity 63    
Precipitation  
Precipitation 1.21 in - - ()
Sea Level Pressure  
Sea Level Pressure 29.90 in    
Wind  
Wind Speed 12 mph (SW)    
Max Wind Speed 22 mph    
Max Gust Speed 36 mph    
Visibility 10 miles    
Events Rain , Thunderstorm    
Averages and records for this station are not official NWS values.
T = Trace of Precipitation, MM = Missing Value Source: NWS Daily Summary

Daily Weather History Graph

Daily Weather History Graph

Search for Another Location

Airport or City:

Astronomy

May. 10, 2019 Rise Set
Actual Time 5:47 AM EDT 8:17 PM EDT
Civil Twilight 5:15 AM EDT 8:49 PM EDT
Nautical Twilight 4:34 AM EDT 9:30 PM EDT
Astronomical Twilight 3:49 AM EDT 10:15 PM EDT
Moon 10:42 AM EDT (5/10) 1:10 AM EDT (5/10)
Length of Visible Light 15h 34m
Length of Day
14h 30m
Waxing Crescent, 35% of the Moon is Illuminated
May 10
Waxing Crescent
May 11
First Quarter
May 18
Full
May 26
Last Quarter
Jun 3
New

Hourly Weather History & Observations

Time (EDT) Temp. Windchill Dew Point Humidity Pressure Visibility Wind Dir Wind Speed Gust Speed Precip Events Conditions
12:54 AM 61.0 °F - 51.1 °F 70% 29.94 in 10.0 mi South 18.4 mph 27.6 mph N/A   Overcast
1:51 AM 59.0 °F - 51.8 °F 77% 29.92 in 10.0 mi South 12.7 mph 26.5 mph 0.08 in Rain Light Rain
1:54 AM 59.0 °F - 52.0 °F 78% 29.92 in 10.0 mi South 13.8 mph 26.5 mph 0.08 in Rain Light Rain
2:52 AM 57.2 °F - 53.6 °F 88% 29.91 in 10.0 mi SSE 9.2 mph - 0.04 in Rain Light Rain
2:54 AM 57.9 °F - 53.1 °F 84% 29.91 in 10.0 mi SSE 8.1 mph - 0.05 in Rain Light Rain
3:12 AM 57.9 °F - 53.1 °F 84% 29.91 in 10.0 mi SSE 8.1 mph - 0.07 in Rain Rain
3:54 AM 57.9 °F - 53.1 °F 84% 29.90 in 10.0 mi South 9.2 mph - 0.10 in Rain Light Rain
4:14 AM 57.9 °F - 53.1 °F 84% 29.89 in 10.0 mi South 11.5 mph 17.3 mph 0.02 in Rain Light Rain
4:54 AM 59.0 °F - 54.0 °F 83% 29.89 in 10.0 mi South 13.8 mph 21.9 mph 0.09 in Rain Rain
5:54 AM 57.9 °F - 54.0 °F 87% 29.88 in 10.0 mi South 11.5 mph 17.3 mph 0.08 in Rain Light Rain
6:54 AM 59.0 °F - 54.0 °F 83% 29.86 in 10.0 mi South 8.1 mph - 0.06 in Rain Light Rain
7:54 AM 60.1 °F - 55.0 °F 83% 29.85 in 10.0 mi SSE 8.1 mph - 0.04 in Rain Light Rain
8:31 AM 60.1 °F - 55.9 °F 86% 29.85 in 10.0 mi South 8.1 mph - 0.12 in Rain Heavy Rain
8:54 AM 60.1 °F - 55.9 °F 86% 29.84 in 10.0 mi South 9.2 mph - 0.23 in Rain Heavy Rain
9:05 AM 61.0 °F - 55.9 °F 83% 29.84 in 10.0 mi South 10.4 mph 19.6 mph 0.12 in Rain Heavy Rain
9:31 AM 60.1 °F - 57.0 °F 90% 29.83 in 10.0 mi Variable 4.6 mph - 0.18 in Rain Light Rain
9:38 AM 60.1 °F - 57.0 °F 90% 29.82 in 10.0 mi Variable 3.5 mph - 0.18 in Rain Light Rain
9:54 AM 61.0 °F - 57.0 °F 87% 29.82 in 10.0 mi Variable 4.6 mph - 0.19 in Rain Light Rain
10:12 AM 62.1 °F - 57.0 °F 84% 29.83 in 10.0 mi South 6.9 mph - 0.00 in Rain Light Rain
10:22 AM 62.1 °F - 57.9 °F 86% 29.84 in 10.0 mi South 6.9 mph - 0.00 in   Overcast
10:31 AM 62.1 °F - 57.9 °F 86% 29.84 in 10.0 mi SSE 4.6 mph - 0.00 in Rain Light Rain
10:46 AM 63.0 °F - 59.0 °F 87% 29.83 in 10.0 mi South 6.9 mph - 0.00 in Rain Light Rain
10:54 AM 64.0 °F - 59.0 °F 84% 29.83 in 10.0 mi South 6.9 mph - 0.00 in Rain Light Rain
11:32 AM 64.0 °F - 59.0 °F 84% 29.83 in 10.0 mi South 9.2 mph - 0.01 in Rain Light Rain
11:40 AM 64.0 °F - 59.0 °F 84% 29.83 in 10.0 mi South 9.2 mph - 0.01 in Rain Light Rain
11:54 AM 64.9 °F - 60.1 °F 84% 29.83 in 10.0 mi SSW 6.9 mph - 0.01 in   Overcast
12:54 PM 71.1 °F - 61.0 °F 70% 29.81 in 10.0 mi SW 8.1 mph - N/A   Overcast
12:58 PM 70.0 °F - 61.0 °F 73% 29.81 in 10.0 mi SSW 9.2 mph - N/A Thunderstorm Thunderstorm
1:06 PM 68.0 °F - 60.1 °F 76% 29.83 in 10.0 mi West 19.6 mph 24.2 mph 0.27 in Rain , Thunderstorm Heavy Thunderstorms and Rain
1:19 PM 62.1 °F - 55.9 °F 80% 29.85 in 10.0 mi West 15.0 mph 31.1 mph 0.28 in Thunderstorm Thunderstorm
1:37 PM 62.1 °F - 55.0 °F 78% 29.86 in 10.0 mi WNW 17.3 mph 27.6 mph 0.28 in   Mostly Cloudy
1:54 PM 62.1 °F - 54.0 °F 75% 29.87 in 10.0 mi WNW 18.4 mph 27.6 mph 0.28 in   Mostly Cloudy
2:02 PM 63.0 °F - 54.0 °F 72% 29.87 in 10.0 mi WNW 19.6 mph 28.8 mph N/A   Mostly Cloudy
2:44 PM 60.1 °F - 51.1 °F 72% 29.89 in 10.0 mi WNW 20.7 mph 33.4 mph N/A   Overcast
2:54 PM 62.1 °F - 52.0 °F 70% 29.89 in 10.0 mi WNW 18.4 mph 27.6 mph N/A   Overcast
3:54 PM 59.0 °F - 46.9 °F 64% 29.92 in 10.0 mi WNW 21.9 mph 35.7 mph N/A   Overcast
4:45 PM 57.0 °F - 46.0 °F 67% 29.95 in 10.0 mi WNW 16.1 mph 28.8 mph N/A   Overcast
4:54 PM 55.9 °F - 45.0 °F 67% 29.96 in 10.0 mi WNW 13.8 mph 25.3 mph N/A   Overcast
5:54 PM 52.0 °F - 43.0 °F 71% 29.99 in 10.0 mi West 11.5 mph 21.9 mph N/A   Overcast
6:54 PM 51.1 °F - 39.9 °F 66% 30.01 in 10.0 mi West 9.2 mph - N/A   Overcast
7:14 PM 52.0 °F - 39.9 °F 63% 30.00 in 10.0 mi West 12.7 mph - N/A   Overcast
7:37 PM 52.0 °F - 39.9 °F 63% 30.02 in 10.0 mi West 13.8 mph - N/A   Overcast
7:54 PM 52.0 °F - 39.9 °F 63% 30.02 in 10.0 mi West 11.5 mph 21.9 mph N/A   Overcast
8:54 PM 51.1 °F - 39.0 °F 63% 30.04 in 10.0 mi West 15.0 mph - N/A   Overcast
9:54 PM 48.9 °F - 37.0 °F 64% 30.05 in 10.0 mi West 15.0 mph - N/A   Overcast
10:54 PM 46.9 °F - 37.0 °F 68% 30.07 in 10.0 mi WNW 13.8 mph 19.6 mph N/A   Overcast
11:54 PM 46.0 °F 41.0 °F 35.1 °F 66% 30.08 in 10.0 mi WNW 10.4 mph - N/A   Overcast